Weather in Ergli

Latvia     56°53′51″N   25°38′18″E
temp.,
°C
wind,
m/s
gust,
m/s
humid.,
%
clouds,
%
prec.,
mm/h
press.,
hPa
HPBL,
m
12 august, fri
fri1200:00+15sw2274100 0.0 102526
03:00+13wsw228419 0.0 102643
06:00+12sw229246 0.0 102638
09:00+19sw34655 0.0 1026309
12:00+23wsw234530 0.0 10261070
15:00+26wsw23365 0.0 10241533
18:00+25w22391 0.0 10241618
21:00+18n12700 0.0 102411
13 august, sat
sat1300:00+15n00700 0.0 102411
03:00+14nne11700 0.0 102411
06:00+14e11710 0.0 102410
09:00+21e11544 0.0 1023224
12:00+26e11415 0.0 10231191
15:00+27ene11340 0.0 10211862
18:00+26ene22385 0.0 10201772
21:00+19ene22674 0.0 102013
14 august, sun
sun1400:00+17e227114 0.0 102116
03:00+16e2275100 0.0 102019
06:00+15e2384100 0.0 102053
09:00+20e2565100 0.0 1020228
12:00+25e2347100 0.0 1020977
15:00+27e2439100 0.0 10191617
18:00+27e344384 0.0 10171799
21:00+20e37707 0.0 1018113
15 august, mon
mon1500:00+18e387691 0.0 1018150
03:00+17e377790 0.0 1018126
06:00+16e37875 0.0 1018131
09:00+21ese376011 0.0 1017300
12:00+27ese45458 0.0 10171001
15:00+29ese463684 0.0 10161759
18:00+27e374457 0.0 10161783
21:00+19se2692100 2.9 1016114
16 august, tue
tue1600:00+17se289397 0.0 1016169
03:00+18ese2893100 0.0 1016201
06:00+18e31090100 0.0 1015237
09:00+21e41177100 0.0 1015391
12:00+23ese51261100 0.0 1014622
15:00+27ese51049100 0.0 1013898
18:00+26ese4105097 0.0 10131147
21:00+23se3105998 0.0 1013415